map of OUN home
OUN - Airport
Location
City:  Norman, Oklahoma, United States
Name:University of Oklahoma / Max Westheimer Airport
ICAO:KOUN
IATA:OUN
FAA LID:OUN

Details
Type:Airport (Airfield)
Use:Public/Civil
Latitude:3514'44"N (35.245556)
Longitude:9728'20"W (-97.472138)
Datum:WGS 1984
Elevation:1181 ft (360 m)
Variation:3.61E (WMM2015 magnetic declination)
-0.11 annual change
Runways:2
Longest:5199 × 100 ft (1585 × 30.5 m), paved

Time
Time Zone:UTC-6 (DST-5)
Local Time:

Weather
METAR:KOUN 200415Z AUTO 16008KT 10SM CLR 25/20 A2990 RMK AO2 T02540202
TAF:KOUN 192320Z 2000/2024 16010KT P6SM SKC
FM201500 18014G20KT P6SM SCT040 SCT250

Related Locations
Nearby:
Farthest:RRG: 10856 mi / 17471 km
Plaine Corail [Sir Gatan Duval Airport (Plaine Corail Airport)], Rodrigues Island, MU

Find:

   beyond  
but within

Other Information
Maps:
NOTAMs:
Links:
Sources:

  
  • flag of United States
  • flag of Oklahoma
  

Airport Diagram

Airport diagram for OUN

Airport diagram PDF

Sectional Chart

Flight Planning
at skyvector.com

Satellite Image

Google Maps Satellite view

 

Copyright © 2004-2018 Karl L. Swartz. All rights reserved.
The Great Circle Mapper name and logo are trademarks of the Great Circle Mapper.
All other trademarks mentioned herein belong to their respective owners.
Please see credits for attibutions and further copyright information.

  Follow gcmap on Facebook Follow gcmap on Twitter Follow gcmap on Google+ GCmap on LinkedIn

hCard Microformat

Geo Microformat